Wind_Speed
50 50 48 47 47 46 45 45 44 42 41 41 40 40 40 40 40 39 39 39 39 39 39 39 40 40 41 41 41 41 40 40 38 36 35 33 32 30
48 47 46 46 47 46 46 46 46 45 44 43 42 42 42 41 41 40 40 40 40 40 40 40 40 41 41 42 42 41 40 40 37 36 34 32 31 30
48 47 46 46 47 46 46 47 47 47 46 45 44 43 43 42 42 42 42 41 41 41 41 41 41 41 42 42 42 41 40 39 37 35 33 31 30 29
48 47 47 47 47 47 47 48 48 47 47 46 45 44 43 43 43 43 42 41 42 42 42 42 42 42 42 42 42 41 39 37 35 33 32 31 30 28
49 48 48 48 48 48 49 48 48 47 47 46 46 45 44 43 43 42 42 42 42 42 43 43 42 42 42 41 41 39 37 36 34 33 32 30 29 28
48 49 49 49 49 49 49 49 49 47 46 45 44 44 45 44 43 43 43 43 43 43 43 43 43 42 41 41 40 38 36 35 34 33 31 30 29 28
49 48 49 49 48 48 48 47 48 47 45 44 43 44 44 44 43 43 43 43 43 43 42 42 41 41 40 40 39 37 35 34 33 32 31 29 28 27
48 48 47 47 47 47 46 46 47 46 45 45 44 44 45 45 44 44 44 44 44 43 42 42 41 40 39 39 38 36 35 34 33 31 30 29 27 27
47 47 46 46 46 46 46 47 47 46 46 45 44 44 45 45 44 43 43 43 43 43 42 42 40 39 38 38 37 35 34 33 32 31 29 28 27 27
45 45 45 45 45 46 45 45 46 45 45 45 44 44 45 43 42 43 43 43 42 42 42 41 40 39 38 37 36 35 33 32 31 30 29 28 27 26
44 45 46 46 46 46 45 44 44 44 44 44 44 45 44 44 43 44 43 43 42 42 41 40 39 38 37 36 36 34 33 32 31 30 29 28 28 27
45 45 45 46 46 46 46 45 45 45 45 45 44 44 44 44 43 43 43 42 42 41 40 39 39 38 37 36 36 34 33 32 31 30 29 29 29 28
45 45 45 46 45 45 46 46 46 45 45 45 45 43 43 43 42 42 41 41 41 40 40 39 38 37 37 36 35 34 33 32 31 30 29 29 28 28
46 46 45 44 44 45 46 46 45 45 45 44 44 43 42 42 42 41 41 41 40 39 39 38 38 37 36 36 35 34 33 32 31 30 29 29 29 28
45 45 44 43 44 45 45 44 44 44 44 43 42 42 42 42 41 40 40 39 39 39 38 38 37 37 36 35 34 33 32 31 30 30 29 29 29 29
44 44 44 44 43 42 42 42 42 42 42 41 41 41 41 41 40 40 39 39 38 38 37 37 36 36 35 34 34 33 32 31 31 30 30 30 29 29
42 43 43 43 43 43 43 42 41 41 40 39 39 39 40 39 39 38 38 38 37 37 36 36 36 35 35 34 33 32 32 32 31 31 31 30 30 29
41 42 43 43 42 42 42 41 41 40 39 38 38 38 38 38 38 38 38 37 37 37 36 36 36 35 34 34 33 33 32 32 31 31 31 30 30 29
41 41 41 41 41 41 41 40 40 39 40 39 39 38 38 38 38 38 38 37 36 36 36 35 35 34 34 34 33 33 32 31 31 31 30 30 30 29
40 40 41 41 40 40 40 40 40 39 39 39 39 39 39 39 38 38 37 37 36 35 35 35 34 34 34 34 33 33 32 31 31 31 31 31 30 30
39 39 40 40 39 39 39 40 40 39 39 39 39 39 39 39 38 38 37 36 36 35 35 35 35 34 34 34 33 33 32 32 32 32 31 31 31 31
38 38 39 39 40 40 39 39 39 39 40 40 39 39 39 39 39 38 37 37 36 36 36 36 35 35 35 34 34 34 33 33 33 32 32 33 33 33
39 40 40 40 41 40 40 40 39 40 40 40 40 39 39 39 38 38 37 37 36 36 36 36 35 35 35 35 35 35 34 34 34 34 34 34 34 34
Wind_Direction
255 257 259 259 260 261 263 264 266 267 268 269 271 273 273 274 276 276 278 280 281 283 285 287 289 291 293 295 297 299 301 302 303 304 304 302 300 299
256 258 258 258 261 262 263 264 265 266 267 268 269 270 272 271 272 273 276 279 280 281 283 286 288 290 292 294 296 297 299 300 301 301 301 300 298 297
255 258 259 260 262 262 264 264 265 266 266 267 266 269 269 269 270 272 274 277 279 280 282 284 287 289 291 294 295 296 297 298 299 298 297 297 296 295
257 258 261 262 262 262 262 264 264 264 265 265 264 266 267 267 269 271 274 276 278 280 282 284 287 289 292 293 294 295 295 296 296 296 295 294 294 292
257 258 259 261 262 262 262 263 263 263 264 264 264 265 265 267 269 272 274 276 279 280 281 284 286 289 291 291 292 293 294 294 294 294 292 292 292 289
256 257 259 261 262 262 263 262 262 263 263 262 262 263 265 267 270 272 274 276 279 281 281 283 285 287 289 290 291 291 291 291 292 292 290 289 288 287
255 257 259 259 260 260 261 261 262 262 260 260 261 263 265 267 270 271 273 275 279 280 281 283 285 286 288 289 289 290 290 290 290 290 289 288 287 284
254 256 257 257 257 258 258 260 260 259 258 258 260 262 264 267 269 270 272 275 277 279 281 282 284 285 287 288 288 288 289 288 288 287 287 286 284 282
255 255 256 257 257 257 259 259 259 257 257 258 261 263 264 267 268 270 272 275 276 278 280 281 283 285 286 287 287 287 287 286 285 285 285 284 282 280
255 255 256 257 258 258 259 258 257 256 257 259 262 263 265 266 268 270 272 274 275 277 279 280 281 283 285 285 285 285 284 284 284 283 283 282 280 279
255 256 256 257 258 257 256 256 256 255 257 259 261 262 264 266 268 269 272 273 274 276 278 279 281 282 282 283 283 283 282 282 282 281 281 280 278 277
254 254 254 254 255 255 255 255 256 256 257 259 262 263 264 265 267 269 270 271 274 276 277 278 279 280 281 282 282 281 281 280 280 279 278 278 277 275
254 253 254 254 254 254 253 253 255 256 257 259 261 263 264 264 265 266 268 270 273 275 275 276 277 278 279 281 281 280 279 278 277 276 276 276 275 273
254 254 255 253 253 253 253 254 256 256 258 260 260 261 262 262 262 264 267 270 272 273 274 275 276 277 279 279 280 279 277 277 277 276 274 273 273 272
254 254 254 254 253 252 253 255 255 256 257 258 258 259 260 261 262 264 267 270 272 273 273 275 276 277 278 278 278 277 275 275 275 274 273 273 272 271
254 255 255 253 253 253 253 253 253 254 255 256 257 259 260 262 263 264 267 269 271 272 274 275 276 276 276 276 276 275 275 274 274 273 272 272 272 270
254 254 254 254 254 252 252 252 253 255 256 257 258 259 260 261 262 264 266 268 270 272 273 274 274 275 275 275 275 275 274 273 273 273 272 271 270 268
255 254 254 254 253 253 253 253 253 254 255 257 258 259 259 260 263 264 266 267 269 270 271 272 273 273 273 274 274 275 274 273 272 272 272 272 270 266
253 253 253 253 253 253 252 252 252 254 255 256 257 257 258 260 262 264 266 267 268 270 270 271 271 271 272 273 274 274 272 272 271 271 271 270 269 266
253 253 252 252 252 252 251 251 251 253 255 256 256 256 258 261 262 264 266 266 267 268 269 269 269 270 271 272 273 272 271 271 271 270 270 269 268 267
253 252 251 251 251 251 251 251 251 253 254 255 256 257 258 259 261 263 263 264 265 266 267 268 269 270 271 271 271 271 271 270 271 270 269 268 267 267
253 252 251 250 250 250 250 252 253 254 254 254 256 257 258 258 259 260 261 262 264 265 267 268 268 269 269 269 270 271 271 270 270 269 269 268 267 267
253 252 251 250 250 250 250 251 253 254 254 254 256 257 257 258 259 259 260 262 264 266 267 268 268 268 268 269 270 270 270 270 270 269 269 268 267 267
Height
5740 5742 5743 5745 5746 5747 5749 5749 5750 5750 5751 5751 5751 5750 5750 5749 5748 5747 5746 5744 5742 5740 5738 5736 5733 5730 5727 5724 5720 5717 5713 5709 5706 5703 5700 5696 5694 5691
5728 5730 5732 5733 5734 5735 5737 5738 5739 5739 5740 5740 5740 5739 5739 5738 5737 5736 5735 5734 5732 5730 5728 5726 5723 5721 5718 5715 5712 5708 5705 5702 5698 5695 5692 5689 5687 5685
5716 5717 5720 5721 5722 5723 5724 5725 5726 5727 5728 5729 5728 5728 5728 5727 5727 5726 5725 5724 5722 5720 5718 5716 5714 5712 5709 5706 5702 5699 5696 5693 5690 5687 5685 5682 5680 5678
5703 5705 5706 5708 5709 5711 5711 5712 5713 5714 5715 5716 5716 5716 5716 5716 5716 5715 5714 5713 5712 5710 5708 5706 5704 5702 5699 5696 5693 5690 5687 5685 5682 5679 5677 5675 5673 5671
5690 5692 5693 5695 5696 5697 5698 5699 5700 5701 5702 5703 5704 5704 5705 5705 5705 5704 5703 5702 5701 5699 5698 5696 5694 5691 5689 5686 5684 5681 5678 5676 5674 5672 5669 5668 5666 5664
5677 5679 5680 5682 5683 5684 5685 5686 5687 5689 5690 5691 5692 5693 5693 5693 5693 5693 5693 5692 5691 5689 5687 5685 5684 5681 5679 5677 5674 5672 5670 5667 5665 5663 5661 5660 5658 5657
5664 5665 5667 5668 5669 5671 5672 5674 5675 5676 5677 5679 5680 5681 5682 5682 5682 5682 5681 5680 5679 5678 5676 5675 5673 5671 5669 5667 5665 5663 5660 5659 5657 5655 5653 5652 5651 5650
5651 5653 5654 5655 5656 5658 5660 5661 5662 5664 5665 5667 5668 5669 5670 5670 5670 5670 5670 5670 5669 5668 5666 5664 5663 5661 5658 5657 5655 5653 5651 5650 5648 5647 5645 5644 5643 5642
5638 5640 5641 5642 5644 5645 5646 5647 5649 5650 5653 5655 5656 5657 5658 5659 5659 5659 5659 5658 5658 5657 5655 5654 5652 5651 5649 5647 5645 5644 5642 5641 5639 5638 5637 5636 5635 5635
5625 5627 5629 5630 5631 5633 5634 5634 5636 5638 5641 5643 5644 5645 5646 5647 5647 5648 5648 5647 5646 5645 5644 5644 5642 5641 5639 5637 5636 5635 5633 5632 5631 5630 5629 5628 5628 5627
5613 5615 5616 5618 5619 5620 5621 5623 5625 5627 5629 5630 5631 5633 5634 5635 5636 5636 5636 5636 5635 5635 5634 5633 5631 5630 5629 5628 5626 5625 5624 5623 5622 5622 5621 5620 5620 5619
5601 5602 5604 5605 5606 5607 5609 5611 5613 5615 5616 5618 5619 5621 5622 5623 5623 5624 5625 5624 5624 5624 5623 5622 5621 5620 5619 5618 5617 5616 5615 5614 5613 5613 5612 5612 5612 5611
5588 5590 5591 5592 5593 5595 5597 5599 5601 5603 5604 5606 5607 5609 5610 5611 5612 5612 5613 5613 5613 5613 5612 5611 5611 5610 5609 5608 5607 5607 5606 5605 5604 5604 5603 5603 5603 5603
5575 5577 5579 5580 5581 5583 5584 5586 5589 5591 5592 5594 5596 5597 5598 5599 5600 5601 5602 5602 5602 5602 5601 5601 5600 5600 5599 5598 5598 5597 5596 5596 5595 5595 5594 5594 5594 5594
5562 5564 5566 5567 5569 5570 5572 5574 5576 5579 5580 5582 5584 5586 5587 5588 5589 5590 5590 5591 5591 5591 5591 5590 5590 5590 5589 5589 5588 5587 5587 5587 5586 5586 5586 5586 5586 5586
5548 5550 5552 5554 5556 5558 5560 5562 5564 5567 5569 5571 5572 5574 5575 5577 5578 5579 5579 5580 5580 5580 5580 5580 5580 5580 5579 5579 5578 5578 5577 5577 5577 5577 5577 5577 5577 5577
5535 5537 5539 5541 5543 5545 5548 5550 5552 5555 5557 5559 5560 5562 5564 5565 5566 5567 5568 5569 5569 5569 5570 5570 5569 5569 5569 5569 5568 5568 5568 5568 5568 5567 5567 5567 5568 5568
5523 5525 5527 5529 5531 5534 5536 5538 5541 5543 5545 5547 5549 5551 5552 5554 5555 5556 5557 5558 5558 5559 5559 5559 5559 5559 5559 5559 5559 5558 5558 5558 5558 5558 5558 5558 5558 5558
5510 5513 5515 5517 5520 5522 5524 5526 5529 5531 5533 5535 5537 5539 5541 5543 5544 5545 5546 5546 5547 5548 5548 5548 5549 5549 5549 5549 5549 5548 5548 5548 5548 5548 5548 5548 5548 5549
5498 5500 5503 5505 5507 5510 5512 5514 5517 5519 5521 5524 5526 5528 5529 5531 5532 5534 5535 5535 5536 5537 5537 5538 5538 5538 5539 5539 5538 5538 5538 5538 5538 5538 5538 5538 5538 5539
5486 5488 5490 5493 5495 5497 5500 5503 5505 5507 5510 5512 5514 5516 5518 5519 5521 5522 5523 5524 5525 5526 5527 5527 5527 5528 5528 5528 5528 5528 5528 5528 5528 5528 5528 5528 5528 5529
5473 5476 5478 5480 5483 5485 5488 5491 5493 5496 5498 5500 5502 5504 5506 5507 5509 5510 5512 5513 5514 5515 5516 5516 5516 5517 5517 5517 5517 5517 5517 5517 5517 5517 5517 5518 5518 5518
5461 5463 5466 5468 5471 5473 5476 5479 5481 5484 5486 5488 5490 5492 5494 5496 5497 5499 5501 5502 5503 5504 5504 5505 5505 5506 5506 5506 5506 5506 5506 5506 5506 5506 5507 5507 5507 5507